Location: Casa Rossa
(45.2389°N, 12.2056°E)
Time: 04:25:33
(UTC+00:00)

deb Kosmos-1763 - Pass Details

Date: 14 July 2020
Orbit: 464 x 480 km, 74.0° (Epoch: 11 August)

Event Time Altitude Azimuth Distance (km) Brightness Sun altitude
Exits shadow 01:49:59 28° 198° (SSW) 911 4.9 -14.6°
Maximum altitude 01:51:46 86° 114° (ESE) 473 3.9 -14.4°
Drops below altitude 10° 01:55:23 10° 22° (NNE) 1,634 8.0 -14.1°
Sets 01:57:30 0° 22° (NNE) 2,519 9.3 -13.8°
